User: anonymous   Login
Location: Unspecified
(0.0000°N, 0.0000°E)
Time: 03:50:16
(UTC+00:00)
Language:

CRYOSAT 2 - Orbit

View from above orbital plane
View from above orbital plane
View from above satellite
View from above satellite

Ground track
Ground track

The orbit data is extracted from the following two-line orbital elements,

1 36508U 10013A   18292.60373781 +.00000006 +00000-0 +67946-6 0  9998
2 36508 092.0250 320.7927 0009583 110.7621 249.4614 14.52177262452205
Epoch (UTC): 19 October 2018 14:29:22
Eccentricity: 0.0009583
inclination: 92.0250°
perigee height: 712 km
apogee height: 725 km
right ascension of ascending node: 320.7927°
argument of perigee: 110.7621°
revolutions per day: 14.52177262
mean anomaly at epoch: 249.4614°
orbit number at epoch: 45220

The dashed part of the orbit path shows where the satellite is in the earth's shadow,  

DLR